�������l�o���
Date,Time,MP-1(��Sv/h),MP-2(��Sv/h),MP-3(��Sv/h),MP-4(��Sv/h),MP-5(��Sv/h),MP-6(��Sv/h),MP-7(��Sv/h),MP-8(��Sv/h),����,����(m/s),���J
2023/07/10,00:00,0.541,0.825,0.501,0.995,0.730,0.329,0.577,0.540,���k��,1.2,�L
2023/07/10,00:10,0.540,0.825,0.499,0.996,0.729,0.331,0.577,0.539,���k��,1.7,�L
2023/07/10,00:20,0.541,0.824,0.500,0.995,0.729,0.331,0.578,0.539,�k��,1.4,��
2023/07/10,00:30,0.539,0.824,0.499,0.993,0.729,0.330,0.576,0.540,�k��,2.6,��
2023/07/10,00:40,0.539,0.824,0.500,0.994,0.728,0.330,0.579,0.538,�k�k��,5.1,��
2023/07/10,00:50,0.538,0.827,0.500,0.994,0.728,0.330,0.579,0.539,�k�k��,4.5,�L
2023/07/10,01:00,0.542,0.821,0.500,0.993,0.724,0.333,0.574,0.536,���쓌,16.0,�L
2023/07/10,01:10,0.534,0.805,0.504,0.976,0.707,0.333,0.564,0.490,���쓌,14.7,�L
2023/07/10,01:20,0.530,0.799,0.504,0.964,0.701,0.334,0.566,0.449,�k,6.0,�L
2023/07/10,01:30,0.539,0.803,0.508,0.967,0.710,0.342,0.568,0.449,��,0.6,�L
2023/07/10,01:40,0.543,0.805,0.509,0.970,0.711,0.343,0.569,0.450,-,CALM,�L
2023/07/10,01:50,0.544,0.805,0.507,0.969,0.709,0.345,0.569,0.455,-,CALM,�L
2023/07/10,02:00,0.541,0.797,0.504,0.964,0.707,0.342,0.567,0.459,���쓌,5.3,�L
2023/07/10,02:10,0.539,0.799,0.504,0.961,0.704,0.343,0.567,0.464,��쓌,0.9,�L
2023/07/10,02:20,0.542,0.802,0.503,0.961,0.704,0.342,0.566,0.469,���쓌,0.8,�L
2023/07/10,02:30,0.539,0.798,0.500,0.960,0.704,0.340,0.564,0.486,�쓌,2.0,�L
2023/07/10,02:40,0.538,0.796,0.498,0.957,0.702,0.338,0.567,0.509,��,1.7,�L
2023/07/10,02:50,0.534,0.794,0.495,0.954,0.698,0.333,0.565,0.524,���k��,1.9,��
2023/07/10,03:00,0.529,0.794,0.491,0.954,0.696,0.329,0.565,0.529,��,1.2,�L
2023/07/10,03:10,0.528,0.790,0.490,0.951,0.693,0.329,0.562,0.530,��,1.5,�L
2023/07/10,03:20,0.524,0.788,0.486,0.949,0.691,0.327,0.562,0.529,���쓌,1.2,�L
2023/07/10,03:30,0.522,0.786,0.487,0.949,0.691,0.325,0.562,0.530,���쓌,1.5,�L
2023/07/10,03:40,0.521,0.785,0.486,0.948,0.692,0.324,0.561,0.527,�쓌,1.5,�L
2023/07/10,03:50,0.521,0.782,0.482,0.945,0.689,0.321,0.561,0.529,��쓌,1.7,�L
2023/07/10,04:00,0.518,0.784,0.482,0.944,0.688,0.321,0.562,0.529,�쓌,2.0,��
2023/07/10,04:10,0.517,0.780,0.480,0.944,0.688,0.321,0.560,0.530,��쓌,1.4,�L
2023/07/10,04:20,0.516,0.781,0.481,0.943,0.685,0.320,0.560,0.528,��,3.0,�L
2023/07/10,04:30,0.516,0.780,0.481,0.945,0.686,0.320,0.559,0.529,��,1.2,��
2023/07/10,04:40,0.515,0.780,0.479,0.943,0.687,0.319,0.560,0.528,�쐼,1.4,��
2023/07/10,04:50,0.514,0.780,0.478,0.944,0.685,0.319,0.560,0.528,��쐼,1.9,��
2023/07/10,05:00,0.514,0.776,0.477,0.942,0.685,0.318,0.559,0.528,�쐼,1.9,��
2023/07/10,05:10,0.513,0.779,0.478,0.942,0.686,0.320,0.558,0.528,��,1.1,��
2023/07/10,05:20,0.513,0.778,0.477,0.942,0.685,0.319,0.560,0.529,��,1.7,��
2023/07/10,05:30,0.513,0.777,0.479,0.941,0.685,0.318,0.558,0.528,��,1.7,��
2023/07/10,05:40,0.513,0.780,0.479,0.944,0.684,0.317,0.559,0.527,��,4.2,��
2023/07/10,05:50,0.513,0.779,0.477,0.943,0.685,0.317,0.560,0.527,���k��,4.7,��
2023/07/10,06:00,0.513,0.778,0.478,0.942,0.685,0.317,0.560,0.528,�k��,4.0,��
2023/07/10,06:10,0.514,0.779,0.477,0.941,0.685,0.319,0.561,0.528,��,2.5,��
2023/07/10,06:20,0.513,0.777,0.478,0.941,0.685,0.319,0.560,0.529,���쐼,2.0,��
2023/07/10,06:30,0.514,0.779,0.478,0.942,0.686,0.318,0.560,0.527,�쐼,3.4,��
2023/07/10,06:40,0.513,0.782,0.478,0.942,0.684,0.316,0.561,0.528,�쐼,2.9,��
2023/07/10,06:50,0.515,0.780,0.479,0.944,0.685,0.316,0.561,0.526,�쐼,2.5,��
2023/07/10,07:00,0.513,0.782,0.478,0.941,0.686,0.318,0.560,0.527,���k��,0.8,��
2023/07/10,07:10,0.514,0.782,0.478,0.941,0.688,0.319,0.561,0.528,���쐼,1.4,��
2023/07/10,07:20,0.514,0.781,0.479,0.943,0.686,0.319,0.560,0.527,���쐼,1.7,��
2023/07/10,07:30,0.514,0.781,0.479,0.943,0.685,0.318,0.560,0.528,-,CALM,��
2023/07/10,07:40,0.517,0.780,0.477,0.943,0.685,0.318,0.562,0.526,�쓌,0.9,��
2023/07/10,07:50,0.515,0.782,0.480,0.943,0.685,0.318,0.561,0.528,��,0.6,��
2023/07/10,08:00,0.516,0.782,0.480,0.943,0.686,0.319,0.560,0.528,���k��,1.1,��
2023/07/10,08:10,0.517,0.785,0.479,0.943,0.689,0.319,0.563,0.527,-,CALM,��
2023/07/10,08:20,0.516,0.781,0.480,0.943,0.687,0.319,0.561,0.526,�쓌,1.5,��
2023/07/10,08:30,0.516,0.779,0.480,0.945,0.686,0.318,0.561,0.527,�쓌,2.0,��
2023/07/10,08:40,0.515,0.783,0.480,0.944,0.687,0.319,0.562,0.527,�쓌,1.7,��
2023/07/10,08:50,0.518,0.780,0.478,0.945,0.689,0.320,0.562,0.527,�쓌,2.0,��
2023/07/10,09:00,0.516,0.781,0.478,0.946,0.687,0.319,0.564,0.527,��쓌,4.3,��
2023/07/10,09:10,0.517,0.784,0.477,0.944,0.690,0.318,0.561,0.527,��쓌,5.0,��
2023/07/10,09:20,0.517,0.785,0.480,0.945,0.688,0.319,0.562,0.527,��쓌,4.6,��
2023/07/10,09:30,0.515,0.783,0.480,0.946,0.681,0.317,0.561,0.526,��,1.9,��
2023/07/10,09:40,0.517,0.782,0.479,0.943,0.687,0.317,0.562,0.527,��,0.9,�L
2023/07/10,09:50,0.515,0.783,0.480,0.945,0.688,0.317,0.561,0.526,���k��,2.8,�L
2023/07/10,10:00,0.516,0.784,0.480,0.946,0.688,0.318,0.558,0.527,��,1.9,�L
2023/07/10,10:10,0.517,0.783,0.479,0.944,0.689,0.318,0.562,0.528,���k��,3.2,��
2023/07/10,10:20,0.517,0.783,0.481,0.944,0.690,0.319,0.562,0.527,���k��,4.0,��
2023/07/10,10:30,0.517,0.784,0.481,0.942,0.689,0.320,0.564,0.527,��,1.5,��
2023/07/10,10:40,0.519,0.784,0.481,0.944,0.688,0.319,0.563,0.526,��쐼,1.9,��
2023/07/10,10:50,0.513,0.785,0.481,0.944,0.690,0.320,0.564,0.526,��,2.3,��
2023/07/10,11:00,0.517,0.779,0.481,0.946,0.691,0.319,0.563,0.525,��,3.7,��
2023/07/10,11:10,0.517,0.784,0.482,0.945,0.692,0.319,0.562,0.526,��,3.5,��
2023/07/10,11:20,0.516,0.785,0.483,0.945,0.692,0.319,0.563,0.524,��,3.2,��
2023/07/10,11:30,0.518,0.787,0.484,0.948,0.691,0.318,0.562,0.526,��,3.3,��
2023/07/10,11:40,0.517,0.787,0.484,0.946,0.693,0.321,0.564,0.526,��,3.8,��
2023/07/10,11:50,0.516,0.789,0.484,0.948,0.692,0.321,0.564,0.528,�쐼,3.7,��
2023/07/10,12:00,0.519,0.788,0.485,0.946,0.694,0.319,0.564,0.527,�쐼,2.8,��
2023/07/10,12:10,0.519,0.788,0.484,0.948,0.692,0.322,0.566,0.529,��,2.3,��
2023/07/10,12:20,0.520,0.790,0.484,0.947,0.694,0.321,0.563,0.528,���쐼,4.4,��
2023/07/10,12:30,0.521,0.790,0.484,0.948,0.693,0.321,0.565,0.529,���쐼,2.2,��
2023/07/10,12:40,0.520,0.790,0.485,0.947,0.691,0.321,0.563,0.529,��쓌,5.5,��
2023/07/10,12:50,0.521,0.790,0.485,0.948,0.694,0.320,0.563,0.529,��쓌,7.0,��
2023/07/10,13:00,0.520,0.790,0.485,0.947,0.696,0.321,0.564,0.528,��쓌,7.6,��
2023/07/10,13:10,0.521,0.787,0.484,0.947,0.695,0.320,0.562,0.527,��쓌,7.9,��
2023/07/10,13:20,0.521,0.788,0.484,0.944,0.693,0.319,0.565,0.529,��쓌,6.8,��
2023/07/10,13:30,0.519,0.787,0.485,0.949,0.695,0.320,0.563,0.529,��쓌,6.4,��
2023/07/10,13:40,0.520,0.790,0.485,0.948,0.696,0.321,0.564,0.527,��,5.8,��
2023/07/10,13:50,0.521,0.790,0.486,0.949,0.695,0.320,0.563,0.529,��,4.6,��
2023/07/10,14:00,0.521,0.790,0.486,0.951,0.695,0.321,0.562,0.529,�쐼,2.0,��
2023/07/10,14:10,0.521,0.791,0.485,0.949,0.694,0.322,0.563,0.528,��,4.6,��
2023/07/10,14:20,0.522,0.791,0.487,0.951,0.697,0.322,0.563,0.528,��,2.6,��
2023/07/10,14:30,0.521,0.793,0.489,0.949,0.696,0.321,0.564,0.529,��,3.8,��
2023/07/10,14:40,0.521,0.793,0.489,0.950,0.697,0.322,0.562,0.527,��,6.4,��
2023/07/10,14:50,0.521,0.793,0.487,0.950,0.697,0.322,0.564,0.529,��,4.9,��
2023/07/10,15:00,0.523,0.795,0.488,0.949,0.698,0.323,0.563,0.530,��,4.7,��
2023/07/10,15:10,0.522,0.796,0.489,0.950,0.700,0.324,0.564,0.528,��쓌,4.9,��
2023/07/10,15:20,0.522,0.794,0.488,0.952,0.699,0.322,0.563,0.529,��,5.7,��
2023/07/10,15:30,0.525,0.796,0.488,0.953,0.698,0.322,0.565,0.528,��,7.0,��
2023/07/10,15:40,0.523,0.796,0.490,0.951,0.699,0.323,0.564,0.529,��,7.6,��
2023/07/10,15:50,0.524,0.796,0.488,0.952,0.702,0.322,0.563,0.529,��,7.6,��
2023/07/10,16:00,0.525,0.794,0.491,0.954,0.701,0.322,0.566,0.531,��,5.8,��
2023/07/10,16:10,0.525,0.796,0.489,0.955,0.701,0.322,0.564,0.528,��,3.9,��
2023/07/10,16:20,0.525,0.794,0.488,0.958,0.701,0.322,0.565,0.529,��쐼,4.8,��
2023/07/10,16:30,0.523,0.795,0.488,0.956,0.699,0.323,0.564,0.528,��쐼,5.5,��
2023/07/10,16:40,0.525,0.796,0.487,0.953,0.698,0.323,0.563,0.529,��쐼,6.9,�L
2023/07/10,16:50,0.523,0.795,0.488,0.954,0.701,0.322,0.563,0.530,��쐼,6.3,�L
2023/07/10,17:00,0.523,0.794,0.488,0.954,0.701,0.324,0.565,0.529,��쐼,6.1,�L
2023/07/10,17:10,0.524,0.795,0.487,0.954,0.700,0.323,0.564,0.529,��쐼,5.6,�L
2023/07/10,17:20,0.526,0.797,0.487,0.953,0.700,0.322,0.563,0.530,�쐼,5.2,��
2023/07/10,17:30,0.525,0.796,0.488,0.955,0.700,0.322,0.563,0.529,�쐼,5.8,��
2023/07/10,17:40,0.526,0.797,0.488,0.955,0.700,0.323,0.563,0.530,�쐼,6.3,�L
2023/07/10,17:50,0.525,0.796,0.488,0.954,0.701,0.322,0.563,0.530,��쐼,6.6,�L
2023/07/10,18:00,0.527,0.798,0.489,0.956,0.702,0.325,0.565,0.531,��쐼,7.0,�L
2023/07/10,18:10,0.528,0.799,0.491,0.959,0.704,0.325,0.564,0.531,��쐼,7.1,�L
2023/07/10,18:20,0.528,0.798,0.492,0.959,0.702,0.327,0.563,0.530,��쐼,5.5,�L
2023/07/10,18:30,0.527,0.795,0.491,0.959,0.702,0.325,0.564,0.530,��쐼,4.9,�L
2023/07/10,18:40,0.527,0.797,0.491,0.957,0.701,0.326,0.563,0.531,��,6.8,�L
2023/07/10,18:50,0.526,0.794,0.489,0.957,0.698,0.326,0.564,0.531,��쐼,5.9,�L
2023/07/10,19:00,0.525,0.793,0.488,0.955,0.698,0.325,0.562,0.530,��쐼,5.0,�L
2023/07/10,19:10,0.523,0.793,0.489,0.955,0.697,0.323,0.562,0.529,��쐼,4.2,��
2023/07/10,19:20,0.525,0.792,0.486,0.953,0.697,0.324,0.561,0.530,��쐼,4.1,�L
2023/07/10,19:30,0.521,0.791,0.486,0.954,0.698,0.322,0.562,0.527,�쐼,5.2,��
2023/07/10,19:40,0.522,0.791,0.486,0.952,0.698,0.321,0.562,0.529,��쐼,5.8,�L
2023/07/10,19:50,0.522,0.791,0.486,0.955,0.699,0.321,0.561,0.527,��쐼,5.3,��
2023/07/10,20:00,0.523,0.792,0.485,0.953,0.697,0.321,0.561,0.527,�쐼,4.3,�L
2023/07/10,20:10,0.521,0.790,0.486,0.952,0.697,0.322,0.561,0.527,��,3.8,�L
2023/07/10,20:20,0.521,0.789,0.485,0.955,0.697,0.322,0.562,0.528,��,3.1,�L
2023/07/10,20:30,0.520,0.791,0.485,0.954,0.698,0.323,0.562,0.528,���쐼,3.9,��
2023/07/10,20:40,0.521,0.789,0.486,0.955,0.697,0.320,0.563,0.528,���k��,6.7,�L
2023/07/10,20:50,0.524,0.788,0.488,0.956,0.698,0.324,0.562,0.528,���k��,7.1,�L
2023/07/10,21:00,0.526,0.790,0.491,0.957,0.700,0.327,0.563,0.528,���k��,7.7,�L
2023/07/10,21:10,0.530,0.791,0.492,0.956,0.698,0.331,0.562,0.530,���k��,6.7,�L
2023/07/10,21:20,0.530,0.791,0.497,0.956,0.700,0.331,0.563,0.527,�k��,5.3,�L
2023/07/10,21:30,0.528,0.789,0.493,0.954,0.699,0.331,0.564,0.530,�k��,4.8,�L
2023/07/10,21:40,0.525,0.789,0.493,0.952,0.696,0.328,0.564,0.530,���k��,2.8,�L
2023/07/10,21:50,0.525,0.784,0.489,0.951,0.694,0.326,0.562,0.530,���쐼,1.5,�L
2023/07/10,22:00,0.522,0.781,0.489,0.949,0.693,0.326,0.562,0.529,��,2.2,�L
2023/07/10,22:10,0.522,0.782,0.486,0.949,0.693,0.325,0.561,0.528,��,2.8,��
2023/07/10,22:20,0.518,0.780,0.483,0.947,0.690,0.322,0.561,0.530,���k��,4.3,��
2023/07/10,22:30,0.516,0.780,0.481,0.945,0.688,0.322,0.560,0.527,���k��,2.6,��
2023/07/10,22:40,0.514,0.777,0.480,0.944,0.689,0.322,0.561,0.528,���k��,1.5,��
2023/07/10,22:50,0.513,0.779,0.480,0.942,0.686,0.322,0.559,0.526,���k��,1.5,��
2023/07/10,23:00,0.514,0.776,0.480,0.944,0.688,0.322,0.558,0.527,�k��,2.5,��
2023/07/10,23:10,0.513,0.776,0.479,0.943,0.688,0.321,0.560,0.527,��,1.5,��
2023/07/10,23:20,0.511,0.779,0.477,0.943,0.686,0.319,0.559,0.526,���쐼,1.5,��
2023/07/10,23:30,0.510,0.777,0.479,0.944,0.685,0.319,0.558,0.527,��쐼,1.1,��
2023/07/10,23:40,0.511,0.776,0.477,0.942,0.687,0.317,0.558,0.527,�쓌,2.6,��
2023/07/10,23:50,0.511,0.776,0.479,0.942,0.685,0.319,0.557,0.526,��쓌,3.0,��
